This is the latest recevied weather packets stored in our database for station/object IR4UCA-3. If no packets are shown the sender has not sent any weather packets the latest 10 day(s).
| Time | Temp. | Humidity | Pressure | Rain* | Wind** | Luminosity | Snow |
|---|---|---|---|---|---|---|---|
| 1777963841 | 13.89° C | 89% | 1013 hPa | 5.59 mm | - | - | - |
| 1777963712 | 13.89° C | 89% | 1013.1 hPa | 5.84 mm | - | - | - |
| 1777963596 | 13.89° C | 89% | 1013.1 hPa | 5.84 mm | - | - | - |
| 1777963472 | 13.89° C | 89% | 1013 hPa | 6.1 mm | - | - | - |
| 1777963240 | 13.89° C | 89% | 1013 hPa | 5.84 mm | - | - | - |
| 1777963110 | 13.89° C | 89% | 1013 hPa | 5.84 mm | - | - | - |
| 1777962988 | 13.89° C | 89% | 1012.8 hPa | 5.59 mm | - | - | - |
| 1777962868 | 13.89° C | 89% | 1012.8 hPa | 5.33 mm | - | - | - |
| 1777962747 | 13.89° C | 88% | 1012.8 hPa | 5.08 mm | - | - | - |
| 1777962632 | 13.89° C | 88% | 1012.8 hPa | 4.83 mm | - | - | - |
| 1777962506 | 13.89° C | 88% | 1012.9 hPa | 4.57 mm | - | - | - |
| 1777962382 | 13.89° C | 88% | 1013 hPa | 4.32 mm | - | - | - |
| 1777962261 | 13.89° C | 88% | 1013.1 hPa | 4.32 mm | - | - | - |
| 1777962141 | 13.89° C | 88% | 1013.1 hPa | 4.06 mm | - | - | - |
| 1777962023 | 13.89° C | 87% | 1013.2 hPa | 3.81 mm | - | - | - |
| 1777961897 | 14.44° C | 87% | 1013.2 hPa | 3.56 mm | - | - | - |
| 1777961777 | 14.44° C | 87% | 1013.2 hPa | 3.3 mm | - | - | - |
| 1777961657 | 14.44° C | 87% | 1013.3 hPa | 3.05 mm | - | - | - |
| 1777961538 | 14.44° C | 87% | 1013.2 hPa | 2.54 mm | - | - | - |
| 1777961421 | 14.44° C | 86% | 1013.2 hPa | 2.29 mm | - | - | - |
| 1777961297 | 14.44° C | 86% | 1013.2 hPa | 2.03 mm | - | - | - |
| 1777961178 | 14.44° C | 85% | 1013.2 hPa | 1.78 mm | - | - | - |
| 1777961055 | 15° C | 85% | 1013.2 hPa | 1.52 mm | - | - | - |
| 1777960938 | 15° C | 84% | 1013.2 hPa | 1.27 mm | - | - | - |
| 1777960842 | 15° C | 84% | 1013.2 hPa | 1.02 mm | - | - | - |
* Rain latest hour (hover to see other rain measurements)
** Current wind speed in m/s (hover to see current wind gust speed)